Retour au catalogue

COSMOS 2251 DEB

ActifLEO
NORAD 47052·DEBRIS·🇷🇺 Russia

Lancé Jun 16, 1993 depuis Plesetsk Cosmodrome

Loading…

Prochains Passages (prochaines 24 heures)

TLE

FraisSource: Space-Track

Époque: Sep 14, 2026, 02:32 UTC

1 47052U 93036BXG 26257.10576206  .00000443  00000-0  15854-3 0  9995
2 47052  74.0490 195.4167 0059944 203.9386 168.8182 14.35852689657417

Suivez COSMOS 2251 DEB en temps réel avec AllMySat

Download on the App Store